Regional Weather Roundup
Issued by NWS

Home | Current Version | Previous Version | Graphics & Text | Print | Product List | Glossary On
Versions: 1 2 3 4 5 6 7 8 9 10 11 12 13 14 15 16 17 18 19 20 21 22 23 24 25 26 27 28 29 30 31 32 33 34 35 36 37 38 39 40 41 42 43 44 45 46 47 48 49 50
000
ASUS43 KBIS 011801
RWRND

NORTH DAKOTA REGIONAL WEATHER ROUNDUP
NATIONAL WEATHER SERVICE BISMARCK ND
1200 PM CST SUN MAR 01 2015

NOTE: "FAIR" INDICATES FEW OR NO CLOUDS BELOW 12,000 FEET WITH NO
SIGNIFICANT WEATHER AND/OR OBSTRUCTIONS TO VISIBILITY.


NDZ001>003-009>011-017-011900-
NORTHWEST NORTH DAKOTA

CITY           SKY/WX    TMP DP  RH WIND       PRES   REMARKS
WILLISTON      MOSUNNY   20  11  68 NW9       30.30R WCI   9
6HR MIN TEMP:  11; 6HR MAX TEMP:  21;

MINOT          CLOUDY    16   8  71 W13       30.24R WCI   2
$$

NDZ018>021-031>035-040>046-011900-
SOUTHWEST NORTH DAKOTA

CITY           SKY/WX    TMP DP  RH WIND       PRES   REMARKS
BISMARCK       CLOUDY    24  13  62 NW20      30.27R WCI  10
6HR MIN TEMP:   7; 6HR MAX TEMP:  24; 6HR PCP: TRACE;

DICKINSON      FLURRIES  24  12  60 NW18      30.22R WCI  10
GARRISON         N/A     18  12  77 NW18G28   30.24R WCI   2
6HR MIN TEMP:   6; 6HR MAX TEMP:  18;

HETTINGER ARPT CLOUDY    23  11  60 NW20G25   30.26R WCI   8
$$

NDZ004>008-012>016-024-026-027-054-011900-
NORTHEAST NORTH DAKOTA

CITY           SKY/WX    TMP DP  RH WIND       PRES   REMARKS
GRAND FORKS    CLOUDY    18  10  71 NW14      30.21R WCI   4
GRND FRKS AFB  LGT SNOW  19   9  63 NW13      30.20S WCI   7
DEVILS LAKE    SUNNY     14   7  73 NW15      30.20R WCI  -1
$$

NDZ022-023-025-028>030-036>039-047>053-011900-
SOUTHEAST NORTH DAKOTA

CITY           SKY/WX    TMP DP  RH WIND       PRES   REMARKS
FARGO          CLOUDY    20  11  68 W14       30.22S WCI   7
6HR MIN TEMP:   0; 6HR MAX TEMP:  20; 6HR PCP: TRACE;

JAMESTOWN      SUNNY     17   9  70 NW16      30.21R WCI   2
$$




USA.gov is the U.S. government's official web portal to all federal, state and local government web resources and services.